Location: Unspecified
(0.0000°N, 0.0000°E)
Time: 00:30:13
(UTC+00:00)

Tiros 1 despin weight - All Passes

Search period start: 13 February 2016 00:00
Search period end: 23 February 2016 00:00
Orbit: 597 x 645 km, 48.2° (Epoch: 12 February)

Date Brightness Start Highest point End Pass type
(mag) Time Alt. Az. Time Alt. Az. Time Alt. Az.
13 Feb - 00:49:26 10° NNW 00:53:54 71° NE 00:58:27 10° SE night (unlit)
13 Feb - 12:58:16 10° SW 13:02:52 67° NW 13:07:23 10° NNE daylight
13 Feb - 23:27:20 10° NNE 23:29:52 15° NE 23:32:26 10° E night (unlit)
14 Feb - 01:07:07 10° WNW 01:11:18 39° SW 01:15:36 10° SSE night (unlit)
14 Feb - 11:35:00 10° S 11:38:49 25° SE 11:42:36 10° ENE daylight
14 Feb - 13:16:34 10° WSW 13:20:17 24° NW 13:23:57 10° N daylight
14 Feb - 23:43:08 10° NNW 23:47:19 40° NE 23:51:34 10° ESE night (unlit)
15 Feb - 01:26:14 10° W 01:28:48 15° SW 01:31:23 10° SSW night (unlit)
15 Feb - 11:51:38 10° SSW 11:56:16 70° SE 12:00:48 10° NE daylight
16 Feb - 00:00:16 10° NW 00:04:43 69° SW 00:09:14 10° SSE night (unlit)
16 Feb - 10:29:25 10° SSE 10:32:10 15° SE 10:34:53 10° E daylight
16 Feb - 12:09:18 10° WSW 12:13:40 40° NW 12:17:58 10° NNE daylight
16 Feb - 22:37:09 10° N 22:40:43 23° NE 22:44:19 10° ESE night (unlit)
17 Feb - 00:18:30 10° WNW 00:22:09 24° SW 00:25:50 10° S night (unlit)
17 Feb - 10:45:15 10° SSW 10:49:38 40° SE 10:53:57 10° ENE daylight
17 Feb - 12:28:23 10° W 12:31:06 15° NW 12:33:47 10° NNW daylight
17 Feb - 22:53:42 10° NNW 22:58:06 67° NE 23:02:35 10° SE night (unlit)
18 Feb - 11:02:23 10° SW 11:07:03 71° NW 11:11:37 10° NNE daylight
18 Feb - 21:31:46 10° NNE 21:34:05 14° NE 21:36:24 10° E night (unlit)
18 Feb - 23:11:19 10° WNW 23:15:31 41° SW 23:19:46 10° SSE night (unlit)
19 Feb - 09:39:10 10° S 09:42:59 24° SE 09:46:44 10° ENE daylight
19 Feb - 11:20:36 10° WSW 11:24:27 25° NW 11:28:14 10° N daylight
19 Feb - 21:47:24 10° NNW 21:51:30 37° NE 21:55:40 10° ESE night (unlit)
19 Feb - 23:30:21 10° W 23:32:58 15° SW 23:35:38 10° SSW night (unlit)
20 Feb - 09:55:45 10° SSW 10:00:24 67° SE 10:05:00 10° NE daylight
20 Feb - 22:04:29 10° NW 22:08:54 73° SW 22:13:22 10° SSE night (unlit)
21 Feb - 08:33:38 10° SSE 08:36:17 15° SE 08:38:54 10° E daylight
21 Feb - 10:13:21 10° WSW 10:17:47 43° NW 10:22:10 10° NNE daylight
21 Feb - 20:41:26 10° N 20:44:53 22° NE 20:48:21 10° ESE night (unlit)
21 Feb - 22:22:38 10° WNW 22:26:18 25° SW 22:30:01 10° S night (unlit)
22 Feb - 08:49:21 10° SSW 08:53:45 38° SE 08:58:04 10° ENE daylight
22 Feb - 10:32:18 10° W 10:35:12 16° NW 10:38:06 10° N daylight
22 Feb - 20:57:54 10° NNW 21:02:16 63° NE 21:06:42 10° SE night (unlit)
